Content
SEND FEEDBACK

Daily
Averages
Monthly
Summary
Czech Republic

CHEB, CZECH REPUBLIC


Home > Europe > Czech Republic
Elevation: 1545 feet     Latitude: 50 05N     Longitude: 012 24E

WEATHER
 
SELECT A DAY
Number of Records: 86,519;   Date Range: 6/5/97 - 10/29/14
 
SHARE

PRINT THIS DATA

[ ← Previous Day ]
WEATHER ALMANAC - JANUARY 3, 2013
[ Next Day → ]
[ °C ]   °F
Weather ElementAverageHighLow
Temperature35.3 °F39.2 °F (10:00 pm)33.8 °F (1:00 am)
Dewpoint33.5 °F39.2 °F (11:00 pm)26.6 °F (2:00 am)
Humidity93.2 %100 % (12:30 pm)75 % (2:00 am)
Barometer30.34 in30.39 in (8:41 pm)30.30 in (6:00 am)
Wind Speed12.9 mph16.1 mph (12:30 pm)
Wind Gust27.6 mph (12:30 pm)
Weather ElementAverage
Visibility3.3 mi
Wind DirectionWSW (246.2 °)

Weather ElementTotal
Precipitation---
Heating Degree Days28.5 (Base 65)
Averaged from 45 records on January 3, 2013
WEATHER CONDITIONS BREAKOUT
WIND DIRECTION BREAKOUT
WEATHER BY HOUR - JANUARY 3, 2013
[ °C ]   °F
Local TimeTemperatureDewpointHumidityBarometerVisibilityWind DirectionWind SpeedGust SpeedPrecipitationEventsConditions
1:00 AM33.8 °F28.4 °F81 %30.33 in6.2 miSW (230°)6.9 mphMostly Cloudy
2:00 AM33.8 °F26.6 °F75 %30.33 in6.2 miSW (230°)6.9 mphMostly Cloudy
3:00 AM33.8 °F28.4 °F81 %30.33 in6.2 miWSW (240°)8.1 mphScattered Clouds
4:00 AM33.8 °F28.4 °F81 %30.33 in6.2 miSW (230°)9.2 mphMostly Cloudy
5:00 AM33.8 °F28.4 °F81 %30.33 in6.2 miSW (230°)6.9 mphMostly Cloudy
6:00 AM33.8 °F28.4 °F81 %30.30 in6.2 miWSW (240°)12.7 mphMostly Cloudy
7:00 AM33.8 °F30.2 °F87 %30.30 in6.2 miWSW (240°)10.4 mphSnowLight Snow
7:30 AM33.8 °F32.0 °F93 %30.30 in6.2 miSW (230°)11.5 mphSnowLight Snow
8:00 AM33.8 °F32.0 °F93 %30.30 in6.2 miWSW (240°)11.5 mphRainLight Rain
8:30 AM33.8 °F32.0 °F93 %30.30 in6.2 miWSW (240°)13.8 mphRainLight Rain
9:00 AM33.8 °F32.0 °F93 %30.33 in6.2 miWSW (240°)11.5 mphRainLight Rain
9:30 AM33.8 °F32.0 °F93 %30.33 in6.2 miWSW (240°)9.2 mphRainLight Rain
9:37 AM33.8 °F32.0 °F93 %30.33 in1.9 miWSW (240°)10.4 mphRainLight Rain
10:00 AM33.8 °F32.0 °F93 %30.33 in3.7 miWSW (240°)10.4 mphRainLight Rain
10:30 AM33.8 °F32.0 °F93 %30.33 in2.8 miWSW (250°)11.5 mphRainLight Rain
11:00 AM33.8 °F32.0 °F93 %30.33 in3.1 miWSW (240°)15.0 mphRainLight Rain
11:30 AM33.8 °F32.0 °F93 %30.33 in4.3 miWSW (240°)13.8 mphRainLight Rain
12:00 PM33.8 °F32.0 °F93 %30.33 in1.2 miWSW (250°)15.0 mphRainLight Rain
12:30 PM33.8 °F33.8 °F100 %30.33 in3.1 miWSW (250°)16.1 mph27.6 mphRainLight Rain
1:00 PM35.6 °F33.8 °F93 %30.33 in5.6 miWSW (250°)12.7 mphMostly Cloudy
1:23 PM35.6 °F33.8 °F93 %30.33 in5.6 miWSW (240°)13.8 mphRainLight Rain
1:30 PM35.6 °F33.8 °F93 %30.33 in5.6 miWSW (240°)12.7 mphRainLight Rain
1:44 PM35.6 °F33.8 °F93 %30.33 in3.1 miWSW (250°)13.8 mph25.3 mphRainLight Rain
2:00 PM35.6 °F33.8 °F93 %30.33 in3.1 miWSW (250°)13.8 mph26.5 mphRainLight Rain
2:09 PM35.6 °F33.8 °F93 %30.33 in1.6 miWSW (250°)13.8 mphRainLight Rain
2:30 PM35.6 °F33.8 °F93 %30.33 in1.2 miWSW (250°)12.7 mphRainLight Rain
2:46 PM35.6 °F33.8 °F93 %30.33 in0.6 miWest (260°)13.8 mphRainLight Rain
3:00 PM35.6 °F33.8 °F93 %30.33 in0.7 miWSW (250°)12.7 mphRainLight Rain
3:30 PM35.6 °F33.8 °F93 %30.33 in0.6 miWSW (250°)15.0 mphRainLight Rain
4:00 PM35.6 °F35.6 °F100 %30.33 in0.6 miWSW (250°)13.8 mphLight Drizzle
4:30 PM35.6 °F35.6 °F100 %30.33 in0.7 miWSW (250°)13.8 mph25.3 mphLight Drizzle
5:00 PM35.6 °F35.6 °F100 %30.33 in0.6 miWSW (250°)15.0 mph26.5 mphLight Drizzle
5:30 PM35.6 °F35.6 °F100 %30.36 in0.6 miWSW (250°)16.1 mphLight Drizzle
5:40 PM35.6 °F35.6 °F100 %30.36 in0.4 miWSW (250°)16.1 mphFogLight Drizzle
6:00 PM35.6 °F35.6 °F100 %30.36 in0.7 miWSW (250°)15.0 mphLight Drizzle
6:30 PM37.4 °F35.6 °F93 %30.36 in0.6 miWSW (250°)15.0 mphLight Drizzle
6:51 PM37.4 °F35.6 °F93 %30.36 in0.4 miWest (260°)15.0 mphFogFog
7:00 PM37.4 °F35.6 °F93 %30.36 in0.4 miWest (260°)15.0 mphFogLight Drizzle
7:30 PM37.4 °F37.4 °F100 %30.36 in0.4 miWSW (250°)16.1 mph27.6 mphFogLight Drizzle
8:00 PM37.4 °F37.4 °F100 %30.36 in0.6 miWest (260°)16.1 mphFogLight Drizzle
8:07 PM37.4 °F37.4 °F100 %30.36 in1.2 miWSW (250°)16.1 mphLight Drizzle
8:41 PM37.4 °F37.4 °F100 %30.39 in3.7 miWest (260°)12.7 mphMostly Cloudy
9:00 PM37.4 °F37.4 °F100 %30.39 in3.7 miWest (260°)13.8 mphMostly Cloudy
10:00 PM39.2 °F37.4 °F93 %30.39 in5.6 miWSW (250°)11.5 mphMostly Cloudy
11:00 PM39.2 °F39.2 °F100 %30.39 in6.2 miWSW (250°)15.0 mphMostly Cloudy
Hourly data recorded from LKKV, located miles away from Cheb, Czech Republic







STORIES FROM OUR PARTNERS